Wind_Speed
16 17 15 10 10 11 12 13 13 14 14 15 16 17 17 17 17 16 14 12 11 10 9 9 8 7 3 3 6 7 5 17 14 10 4 3 4 3 1 2 3 3 3 7 9 13 4
14 15 15 13 10 11 12 13 14 14 15 16 16 17 18 18 17 17 15 13 11 11 9 8 7 5 2 2 5 3 4 14 9 8 3 2 5 4 0 2 2 2 5 8 5 6 2
13 15 15 14 11 10 12 13 14 15 15 16 17 18 19 19 19 18 16 14 12 10 9 7 4 3 2 7 4 5 6 5 5 5 4 6 1 4 1 4 3 10 4 9 8 3 3
17 18 16 15 13 11 11 13 14 15 16 16 17 18 19 20 20 18 18 16 14 12 6 3 2 1 5 2 7 7 8 3 2 7 7 2 4 2 2 4 3 3 4 3 6 5 1
18 19 18 17 16 13 12 13 14 15 15 16 18 19 20 21 22 21 21 17 11 1 1 0 2 2 5 3 7 7 13 4 6 6 4 2 4 2 2 3 4 6 3 5 4 5 2
16 18 20 19 18 16 14 15 16 16 18 19 19 20 21 21 22 22 20 10 6 6 4 2 1 2 2 2 4 2 9 9 3 4 2 3 4 2 4 4 3 2 4 3 4 3 7
15 17 17 19 20 18 17 15 16 16 18 19 21 22 23 23 24 20 13 1 4 3 1 5 4 4 5 8 2 1 5 8 3 3 3 2 4 4 2 5 4 4 3 5 3 5 4
17 16 17 18 20 20 20 18 17 17 18 20 21 23 24 23 25 12 6 4 2 2 7 5 4 6 9 4 2 1 12 4 3 3 4 5 1 4 4 3 2 5 7 2 1 4 2
19 16 16 16 18 19 21 21 19 18 18 20 21 23 25 25 17 4 8 3 2 7 2 6 5 4 3 8 5 4 6 3 2 2 3 5 3 4 3 2 4 4 5 5 3 5 3
22 22 19 15 16 18 20 22 21 20 20 19 21 22 24 25 3 12 4 2 17 5 5 6 3 4 4 3 2 5 7 4 3 4 5 2 3 3 3 4 5 3 7 9 10 5 2
22 23 23 21 18 16 20 22 23 21 21 21 21 22 22 21 15 3 1 14 3 2 4 2 2 1 1 4 1 1 2 5 5 3 6 6 2 3 4 7 8 5 11 6 2 3 2
21 22 23 22 22 21 20 22 24 24 22 21 22 22 22 11 10 8 9 10 3 5 1 5 1 1 2 1 2 1 3 5 2 3 1 6 3 5 6 2 9 11 7 7 5 3 2
22 22 22 23 23 22 23 23 25 25 24 24 23 25 21 13 4 3 12 3 5 3 3 5 2 1 1 3 2 2 4 2 3 3 3 4 3 1 4 8 6 5 7 3 2 0 5
22 23 22 22 22 23 23 25 25 27 25 26 27 21 12 13 2 8 2 5 2 2 4 4 3 2 3 5 4 3 3 2 1 4 1 1 5 8 4 5 7 4 6 6 6 4 2
22 23 24 23 23 23 23 25 28 27 26 30 24 10 7 3 13 6 5 3 6 4 3 3 3 6 5 4 2 4 4 2 2 4 6 1 5 1 5 5 9 6 5 5 5 2 1
23 23 23 23 22 23 23 24 29 27 26 27 16 7 5 2 13 7 4 5 4 4 2 2 3 2 2 5 4 4 0 1 2 2 2 2 3 3 2 4 2 5 7 2 2 4 4
24 23 21 22 23 22 22 22 26 28 27 19 5 3 6 14 6 5 3 6 5 6 4 4 3 3 0 3 2 1 1 2 1 3 1 3 2 6 1 2 7 2 2 1 4 4 5
23 22 20 20 22 22 20 20 23 25 28 13 5 2 5 10 3 1 3 5 4 3 2 2 4 2 3 2 2 3 3 4 1 1 1 0 4 3 6 7 2 4 6 6 4 4 2
22 21 18 20 21 21 18 17 19 20 21 10 2 2 4 3 3 2 4 3 3 2 3 4 4 3 2 4 1 1 2 2 3 3 3 3 1 3 5 4 4 4 3 2 3 3 5
19 18 15 19 19 20 16 16 17 17 16 9 2 1 3 2 1 5 3 4 3 2 4 3 5 4 4 2 1 2 2 3 5 2 7 4 2 5 4 6 1 5 5 3 4 3 4
15 16 15 17 17 17 14 15 16 16 16 5 1 2 2 2 2 3 3 2 3 3 1 2 1 4 7 4 1 3 2 4 2 6 2 4 5 4 5 3 6 8 4 7 1 3 4
14 14 16 16 16 15 13 13 15 15 16 1 1 2 4 3 2 3 5 5 4 3 6 4 5 4 5 6 8 8 5 3 2 3 3 3 1 2 1 3 4 1 8 3 4 4 1
14 15 16 16 15 11 10 12 13 12 11 2 1 2 2 3 2 2 4 3 3 4 5 7 9 6 5 6 6 3 3 3 2 1 1 2 3 2 5 6 4 4 0 3 1 4 3
16 15 13 14 13 9 9 11 11 9 6 4 2 1 1 4 1 4 1 2 8 6 5 4 6 6 3 8 7 6 7 3 4 6 1 4 3 2 2 0 4 4 1 5 2 2 4
15 14 13 12 10 10 10 10 9 8 6 4 3 1 1 3 3 7 4 4 6 3 0 6 4 3 8 6 4 4 4 2 3 5 3 2 4 3 3 3 3 4 6 5 4 5 3
14 14 12 11 12 12 11 9 9 8 7 7 7 6 1 1 4 3 3 2 1 2 3 3 4 3 6 4 4 3 3 1 2 1 2 5 6 4 3 2 4 4 2 4 5 5 3
14 12 12 13 11 12 11 10 8 8 8 9 5 8 2 2 4 1 3 1 1 2 1 2 4 2 3 3 3 3 3 1 2 3 4 2 3 4 1 2 6 5 1 3 3 6 5
14 13 13 13 12 12 11 10 8 8 8 9 6 8 6 2 6 4 3 2 3 1 3 3 3 3 3 4 3 3 3 4 1 4 3 4 4 2 2 1 3 1 1 5 4 2 4
14 13 14 14 12 12 11 10 8 8 8 8 5 2 13 3 5 10 19 23 15 10 2 2 3 5 5 5 1 3 2 2 2 2 0 1 5 4 6 5 5 4 5 3 4 3 3
Wind_Direction
20 17 12 21 21 20 16 12 9 9 8 6 5 4 3 4 4 1 355 353 353 349 348 350 341 347 9 344 256 335 4 155 164 167 164 119 116 133 130 293 137 177 152 157 154 220 225
14 10 10 13 15 15 14 10 7 5 2 359 359 359 357 358 359 356 352 345 341 336 330 339 344 356 19 335 318 329 133 155 167 164 130 142 167 189 27 297 211 104 113 117 166 124 38
4 11 15 11 11 12 11 7 5 4 1 358 356 355 352 353 352 348 344 331 323 321 314 330 343 25 53 229 92 129 145 178 197 177 133 225 158 72 144 315 336 144 118 90 42 55 112
15 12 13 10 9 8 6 5 3 2 359 356 354 352 349 347 344 337 337 327 316 304 289 319 9 25 248 230 246 258 216 216 212 210 202 322 172 94 175 301 39 185 112 106 21 61 43
10 13 12 10 6 4 359 358 359 358 356 355 352 350 347 344 339 334 337 330 329 322 196 31 18 62 288 220 272 274 218 139 144 154 199 96 135 123 358 89 31 4 101 86 125 36 91
5 7 8 9 5 3 357 351 350 352 352 351 350 348 346 344 337 336 337 345 56 81 107 59 308 350 296 260 296 249 187 154 128 116 74 94 54 64 46 70 209 141 131 67 127 138 92
6 3 0 2 5 2 357 351 348 347 345 346 345 345 344 343 336 337 341 357 10 7 134 217 231 258 283 309 334 158 146 147 113 62 112 49 96 208 135 199 160 124 108 120 155 180 134
8 7 1 358 358 359 357 353 349 346 343 343 341 341 341 342 336 346 26 63 123 135 311 247 252 267 264 274 307 317 147 122 145 171 109 35 253 210 176 178 153 116 123 131 33 111 88
6 359 0 360 355 352 353 352 348 345 343 342 339 338 338 342 338 37 342 138 164 327 161 301 215 215 212 153 206 245 134 137 127 107 147 139 222 102 157 178 128 155 177 190 152 141 48
6 6 0 351 356 354 349 348 345 343 341 338 337 335 337 342 0 335 324 12 319 175 57 291 284 291 121 172 301 215 174 129 30 170 140 198 272 202 162 219 155 202 192 144 140 137 193
360 360 359 356 349 348 350 347 344 341 340 336 334 330 331 331 305 285 19 334 29 129 56 280 246 145 149 124 228 91 206 67 150 155 97 249 243 215 195 217 164 237 110 116 88 61 93
353 354 352 351 352 349 347 345 343 340 339 334 329 324 320 320 298 262 323 339 124 40 1 338 256 62 72 48 266 87 99 59 140 153 48 239 221 186 208 14 177 130 83 54 52 53 287
350 349 347 345 346 348 345 343 340 337 338 332 323 320 304 279 240 186 343 50 45 120 317 310 317 352 156 335 5 92 116 75 109 51 339 314 246 59 125 77 20 88 78 22 349 291 234
343 345 344 342 337 341 344 342 339 337 338 331 325 317 290 262 209 242 328 54 139 240 272 313 22 29 65 357 43 36 80 65 101 116 140 221 317 168 177 169 172 158 142 160 208 194 247
337 339 340 338 337 336 341 342 343 338 338 333 329 314 280 278 212 198 78 87 203 204 257 334 12 56 340 10 92 70 27 151 204 174 171 176 277 220 199 151 149 209 205 155 104 354 101
331 331 333 334 335 336 338 343 342 340 340 336 328 327 282 271 155 147 83 223 221 214 324 81 123 180 60 321 47 59 311 289 281 248 200 188 300 251 246 105 337 156 167 114 23 163 241
321 325 326 331 336 334 338 342 345 343 342 341 330 34 352 149 130 56 165 228 248 244 207 155 201 155 150 151 99 30 215 281 244 312 245 145 125 295 358 181 186 124 165 70 130 164 166
314 318 321 328 329 330 336 343 348 349 348 350 347 68 360 156 65 7 174 202 241 248 215 157 130 132 150 140 129 176 207 227 203 223 294 28 146 269 245 292 230 197 193 153 137 242 243
306 312 316 327 325 327 334 340 348 354 2 342 8 269 40 7 159 239 272 277 263 258 252 167 167 176 57 132 146 235 265 278 28 322 232 213 358 7 355 343 43 34 6 90 103 85 200
304 312 315 323 322 326 333 338 341 347 351 347 5 38 332 58 145 152 190 269 250 245 256 175 143 110 112 101 310 201 269 305 339 267 351 119 130 148 206 237 345 325 343 348 149 135 180
311 311 309 318 321 326 330 334 335 341 344 339 58 264 215 218 266 201 186 264 238 258 241 106 48 191 149 156 191 229 220 304 327 334 81 105 190 170 175 271 86 254 353 357 72 99 179
307 307 309 310 313 322 326 330 333 337 342 280 47 357 352 280 305 208 177 221 218 280 194 189 167 180 149 153 184 206 171 204 220 315 76 344 170 283 66 97 268 337 30 344 15 19 5
302 305 308 307 310 314 319 323 330 335 347 345 11 289 126 267 288 158 215 192 241 349 249 185 164 130 155 217 172 165 156 104 147 234 8 86 90 28 169 298 37 336 290 56 226 359 310
307 309 306 304 308 318 318 318 322 326 336 322 343 12 71 279 248 228 294 272 276 236 200 139 117 119 180 109 100 71 52 96 64 15 306 116 104 66 259 66 183 282 182 152 229 253 311
308 308 307 308 315 319 317 313 308 311 295 284 281 344 169 262 267 295 279 274 312 334 171 135 194 172 138 68 63 38 352 37 353 40 32 100 116 99 199 183 274 163 212 155 147 277 186
306 309 309 312 312 313 312 306 293 295 284 269 269 245 221 207 241 335 308 335 324 23 34 86 55 106 68 84 79 128 209 228 314 335 139 83 92 130 128 93 216 248 180 94 91 295 180
308 314 312 313 313 312 310 302 282 282 274 247 262 221 222 212 266 309 235 265 14 42 162 315 168 79 49 89 91 146 226 185 201 225 217 24 31 135 130 198 281 251 210 88 118 244 153
308 310 314 317 314 312 310 300 278 274 263 230 264 244 217 239 277 236 295 344 339 105 132 298 59 3 57 73 119 193 160 218 163 236 199 182 130 161 104 136 282 139 118 173 219 355 146
303 305 313 314 316 309 304 297 274 266 248 224 263 249 214 222 260 289 278 263 251 232 92 241 220 184 166 93 119 118 154 137 157 256 33 247 176 179 171 218 251 264 224 266 198 144 174
Height
832 829 826 824 822 820 818 817 814 812 810 808 805 803 800 797 794 792 789 787 785 783 782 780 778 776 776 776 769 761 760 761 765 767 769 771 776 779 788 783 781 787 787 788 794 797 794
833 830 827 824 823 821 819 817 814 812 810 807 805 802 799 796 793 790 788 786 784 782 781 779 778 777 777 778 762 761 762 763 766 768 771 772 774 775 781 783 786 780 785 791 793 795 794
834 830 827 825 823 821 819 817 814 812 810 807 804 802 799 796 793 789 787 784 782 781 780 779 778 777 778 770 762 762 764 765 767 769 772 772 773 776 779 785 775 782 794 795 801 797 801
834 831 828 825 823 821 819 817 814 812 809 806 804 801 798 795 791 788 785 782 780 778 778 778 777 777 776 762 762 762 764 766 768 769 771 772 774 776 779 778 781 788 792 808 806 801 803
835 832 829 826 823 821 818 816 813 811 808 805 802 799 797 794 790 786 782 779 776 775 777 777 778 778 771 762 761 759 761 765 767 769 771 772 774 781 780 794 806 805 816 809 812 806 806
836 833 830 827 823 820 818 815 813 810 807 804 801 798 795 791 787 783 780 777 776 776 777 778 778 779 763 764 759 758 760 764 766 769 773 775 786 795 801 808 825 811 818 812 813 812 811
836 833 831 828 824 820 817 815 812 809 806 803 800 797 793 790 785 782 779 777 781 780 779 774 772 770 763 759 757 758 760 763 766 771 787 782 798 807 799 796 795 798 805 814 808 805 807
836 834 831 827 824 821 817 814 811 808 805 802 798 795 791 787 783 780 779 780 783 785 786 767 769 767 761 760 764 759 760 767 772 786 783 797 805 790 788 789 791 801 812 817 811 808 811
836 833 830 827 824 821 817 813 810 807 804 801 797 793 789 785 781 781 781 781 781 781 789 771 763 763 758 760 764 762 759 764 773 784 788 802 790 783 786 792 796 805 809 817 810 812 813
837 833 830 826 823 820 817 813 809 805 803 799 796 792 788 785 784 782 780 780 779 778 802 780 767 758 757 757 764 755 756 763 774 783 788 789 782 783 790 794 795 808 793 798 811 816 829
837 834 830 825 822 819 815 812 807 804 801 798 794 790 788 785 784 782 781 779 776 778 824 769 762 752 755 763 761 760 756 761 780 780 785 794 784 786 792 791 787 798 789 804 811 822 822
837 833 829 825 821 817 814 810 806 802 798 795 792 788 785 783 781 778 778 777 778 807 811 779 760 764 765 763 762 759 760 759 765 777 781 784 771 776 781 778 777 786 802 812 818 829 837
836 832 829 825 821 817 812 808 804 799 795 791 787 784 780 780 778 776 776 777 810 818 778 782 776 770 768 773 769 768 773 780 793 801 801 786 779 774 775 791 788 795 816 846 843 846 834
835 832 828 824 821 816 811 807 802 797 792 787 782 777 774 773 774 776 777 793 809 788 789 772 775 773 778 776 774 774 781 793 779 789 807 810 809 784 773 784 795 802 806 836 837 843 828
834 830 827 823 819 815 811 806 800 794 789 783 776 772 770 768 770 776 784 812 804 789 778 779 777 790 790 779 777 783 789 793 782 783 802 805 799 767 770 770 776 799 808 799 825 824 826
833 829 825 821 817 813 809 804 799 792 786 781 775 771 768 767 769 775 793 804 791 779 772 774 790 785 795 791 787 790 792 780 782 776 777 786 806 774 768 766 770 783 782 809 824 834 828
831 827 824 819 815 811 807 803 798 791 785 779 776 774 769 769 771 782 802 800 783 770 769 777 784 787 787 787 789 796 792 782 777 779 780 784 798 787 773 778 787 789 794 799 808 816 826
828 825 822 818 814 809 805 802 799 793 785 780 779 781 771 772 787 804 798 789 773 769 763 768 772 776 783 788 792 795 791 785 774 776 784 784 800 805 785 770 769 774 781 788 813 807 814
824 821 819 816 812 808 805 802 799 795 791 789 791 786 772 772 793 797 789 779 771 769 768 769 773 773 778 791 794 793 787 775 775 778 780 781 801 811 791 779 773 783 779 783 799 804 811
819 818 816 813 810 806 804 802 799 796 793 791 791 784 779 777 784 783 782 780 777 763 765 764 769 772 782 791 793 790 789 780 779 777 773 776 801 796 813 801 790 793 788 784 793 808 805
816 815 813 810 808 805 803 801 800 796 792 791 792 788 785 786 783 778 776 775 775 775 761 762 769 771 781 794 794 793 791 788 777 778 776 785 799 797 792 790 790 803 792 787 786 797 793
812 811 810 808 805 803 802 800 799 796 792 791 793 791 786 785 780 777 780 775 770 768 765 767 771 770 778 791 788 793 788 789 786 782 783 790 794 792 794 787 786 793 788 787 789 791 791
810 808 807 805 803 801 801 799 797 796 794 790 789 789 790 782 780 778 774 765 765 766 757 754 759 771 777 775 773 773 779 784 780 784 788 791 799 801 805 798 785 801 794 793 790 787 790
807 805 803 803 801 800 800 798 796 796 795 794 791 791 791 785 780 772 764 763 762 762 761 756 759 766 766 766 772 778 785 785 786 791 788 791 804 804 806 799 819 792 785 785 788 786 788
804 802 801 800 799 799 797 796 795 794 794 794 792 792 790 787 780 770 763 762 757 754 753 755 756 756 760 769 789 797 801 791 789 792 793 791 803 814 812 815 805 791 787 785 789 788 781
802 800 799 798 797 796 794 793 793 793 792 792 791 791 791 788 775 768 766 761 765 764 760 756 756 758 763 785 794 803 810 803 799 792 792 795 800 806 818 811 813 791 778 771 781 801 776
799 797 797 796 794 793 792 791 790 790 790 790 789 789 790 787 771 768 769 765 762 765 767 766 759 762 766 791 804 810 809 805 807 800 795 803 809 811 818 815 805 786 777 774 802 798 776
796 795 794 793 791 790 789 788 787 787 788 788 787 787 788 787 773 765 762 762 763 766 769 766 767 767 779 791 798 808 810 809 806 799 794 802 809 815 822 813 804 781 780 788 781 776 775
793 792 791 790 788 787 786 785 784 785 785 786 786 784 785 787 772 762 760 758 758 757 764 765 764 763 766 786 795 804 805 810 809 803 793 801 796 805 806 805 786 781 778 773 774 774 775